1511938800.28,27891,5.38,72172.5,-9.83,-11.11,-11.07,0,*50
1511938801.53,27892,5.31,72168.3,-9.83,-11.11,-11.07,0,*53
1511938802.74,27893,5.38,72184.8,-9.85,-11.23,-11.15,0,*56
1511938803.99,27894,5.38,72190.5,-9.85,-11.37,-11.29,0,*5B
1511938805.27,27895,5.31,72198.0,-9.83,-11.33,-11.37,0,*57
1511938806.53,27896,5.31,72202.3,-9.85,-11.29,-11.29,0,*56
1511938807.74,27897,5.38,72196.8,-9.85,-11.15,-11.15,0,*57
1511938808.94,27898,5.38,72202.5,-9.85,-11.23,-11.15,0,*5D
1511938810.18,27899,5.38,72206.3,-9.85,-11.29,-11.23,0,*53
1511938811.43,27900,5.38,72202.5,-9.85,-11.37,-11.37,0,*58
1511938812.72,27901,5.38,72208.8,-9.87,-11.29,-11.29,0,*5B
1511938813.95,27902,5.31,72200.5,-9.87,-11.23,-11.15,0,*5D
1511938815.18,27903,5.38,72178.3,-9.85,-11.23,-11.37,0,*5E
1511938816.44,27904,5.31,72176.5,-9.85,-11.29,-11.37,0,*53
1511938817.67,27905,5.38,72176.8,-9.85,-11.37,-11.41,0,*5C
1511938818.9,27906,5.38,72176.8,-9.87,-11.15,-11.15,0,*5C
1511938820.13,27907,5.31,72176.8,-9.87,-11.15,-11.15,0,*5D
1511938821.33,27908,5.31,72170.5,-9.85,-11.11,-11.23,0,*51
1511938822.62,27909,5.38,72166.0,-9.87,-11.29,-11.29,0,*53
1511938823.87,27910,5.31,72156.8,-9.85,-11.37,-11.37,0,*59
1511938825.16,27911,5.38,72170.0,-9.87,-11.29,-11.29,0,*5A
1511938826.37,27912,5.31,72192.8,-9.85,-11.01,-11.11,0,*5A
1511938827.58,27913,5.31,72196.0,-9.85,-10.97,-10.89,0,*55
1511938828.8,27914,5.31,72194.5,-9.85,-10.97,-10.97,0,*5D
1511938830.03,27915,5.38,72168.8,-9.85,-10.85,-10.75,0,*53
1511938831.23,27916,5.38,72182.5,-9.85,-10.85,-10.85,0,*5F
1511938832.43,27917,5.38,72180.0,-9.85,-10.89,-10.89,0,*5E
1511938833.65,27918,5.38,72174.0,-9.85,-10.97,-11.01,0,*5F
1511938834.85,27919,5.38,72168.3,-9.85,-10.89,-10.89,0,*50
1511938836.11,27920,5.38,72192.3,-9.85,-11.29,-11.29,0,*5A
1511938837.38,27921,5.31,72194.5,-9.85,-11.29,-11.29,0,*5B
1511938838.63,27922,5.38,72166.0,-9.85,-11.37,-11.37,0,*58
1511938839.86,27923,5.31,72150.0,-9.85,-11.41,-11.51,0,*58
1511938841.11,27924,5.38,72164.8,-9.85,-11.51,-11.51,0,*5E
1511938842.4,27925,5.38,72164.5,-9.87,-11.55,-11.55,0,*5D
1511938843.66,27926,5.31,72154.0,-9.85,-11.55,-11.55,0,*5C
1511938844.94,27927,5.38,72170.0,-9.87,-11.51,-11.55,0,*5B
1511938846.22,27928,5.38,72178.5,-9.87,-11.51,-11.63,0,*51
1511938847.48,27929,5.38,72164.8,-9.85,-11.63,-11.67,0,*57
1511938848.76,27930,5.38,72152.0,-9.87,-11.55,-11.67,0,*58
1511938850.02,27931,5.38,72144.8,-9.85,-11.55,-11.55,0,*5A
1511938851.31,27932,5.38,72146.0,-9.87,-11.55,-11.63,0,*5E
1511938852.59,27933,5.31,72152.0,-9.87,-11.37,-11.55,0,*5E
1511938853.87,27934,5.31,72158.3,-9.87,-11.51,-11.63,0,*5C
1511938855.15,27935,5.31,72164.8,-9.87,-11.73,-11.85,0,*55
1511938856.42,27936,5.31,72170.0,-9.87,-11.73,-11.85,0,*56
1511938857.7,27937,5.31,72178.5,-9.87,-11.81,-11.93,0,*5D
1511938858.99,27938,5.38,72170.3,-9.87,-11.85,-11.93,0,*56
1511938860.26,27939,5.31,72188.8,-9.87,-11.81,-11.81,0,*50
1511938861.54,27940,5.31,72182.0,-9.87,-11.73,-11.67,0,*5B
1511938862.82,27941,5.31,72172.3,-9.87,-11.55,-11.55,0,*5F
1511938864.08,27942,5.38,72180.8,-9.89,-11.55,-11.55,0,*52
1511938865.34,27943,5.31,72194.5,-9.89,-11.55,-11.55,0,*53
1511938866.57,27944,5.38,72192.8,-9.89,-11.45,-11.33,0,*55
1511938867.82,27945,5.38,72184.3,-9.89,-11.33,-11.33,0,*55
1511938869.04,27946,5.31,72202.0,-9.89,-11.45,-11.45,0,*56
1511938870.24,27947,5.38,72198.3,-9.89,-11.19,-11.15,0,*5B
1511938871.45,27948,5.38,72172.8,-9.89,-11.41,-11.41,0,*58
1511938872.66,27949,5.31,72174.3,-9.89,-11.41,-11.19,0,*54
1511938873.89,27950,5.31,72192.0,-9.89,-11.55,-11.45,0,*50
1511938875.11,27951,5.31,72166.8,-9.89,-11.45,-11.19,0,*59
1511938876.36,27952,5.31,72168.0,-9.89,-11.55,-11.33,0,*53
1511938877.64,27953,5.38,72180.5,-9.87,-11.55,-11.51,0,*58
1511938878.92,27954,5.38,72174.0,-9.87,-11.55,-11.51,0,*5F
1511938880.18,27955,5.31,72174.8,-9.89,-11.59,-11.59,0,*54
1511938881.45,27956,5.38,72206.8,-9.91,-11.73,-11.59,0,*56
1511938882.69,27957,5.38,72186.8,-9.89,-11.59,-11.45,0,*5B
1511938883.95,27958,5.38,72184.5,-9.89,-11.33,-11.07,0,*5E
1511938885.15,27959,5.38,72194.3,-9.89,-11.19,-11.01,0,*51
1511938886.39,27960,5.38,72146.8,-9.89,-11.29,-11.01,0,*58
1511938887.68,27961,5.31,72142.3,-9.87,-10.75,-10.67,0,*5E
1511938888.96,27962,5.31,72188.8,-9.87,-10.75,-10.75,0,*5E
1511938890.2,27963,5.31,72186.0,-9.87,-10.97,-10.89,0,*50
1511938891.45,27964,5.38,72172.0,-9.87,-10.89,-10.75,0,*5B
1511938892.69,27965,5.31,72166.8,-9.89,-11.07,-11.01,0,*51
1511938893.92,27966,5.31,72170.0,-9.87,-11.23,-11.23,0,*5A
1511938895.17,27967,5.31,72172.0,-9.87,-11.41,-11.37,0,*5A
1511938896.45,27968,5.31,72174.0,-9.87,-11.51,-11.51,0,*54
1511938897.74,27969,5.31,72172.8,-9.87,-11.63,-11.63,0,*55
1511938898.99,27970,5.38,72188.3,-9.89,-11.73,-11.77,0,*57
1511938900.24,27971,5.38,72176.8,-9.89,-11.73,-11.73,0,*52
1511938901.5,27972,5.38,72190.8,-9.89,-11.77,-11.85,0,*5C
1511938902.78,27973,5.38,72196.5,-9.91,-11.73,-11.73,0,*59
1511938904.03,27974,5.38,72186.5,-9.89,-11.59,-11.73,0,*5F
1511938905.27,27975,5.38,72164.0,-9.89,-11.45,-11.55,0,*57
1511938906.51,27976,5.31,72186.3,-9.89,-11.41,-11.55,0,*50
1511938907.77,27977,5.31,72174.5,-9.89,-11.55,-11.67,0,*55
1511938909.03,27978,5.38,72180.3,-9.89,-11.73,-11.67,0,*5E
1511938910.31,27979,5.31,72172.3,-9.91,-11.59,-11.67,0,*5E
1511938911.57,27980,5.31,72178.3,-9.89,-11.67,-11.67,0,*5C
1511938912.85,27981,5.38,72182.0,-9.91,-11.73,-11.77,0,*50
1511938914.13,27982,5.38,72178.8,-9.91,-11.67,-11.77,0,*56
1511938915.41,27983,5.31,72176.8,-9.91,-11.73,-11.89,0,*53
1511938916.69,27984,5.38,72186.0,-9.91,-11.67,-11.77,0,*50
1511938917.98,27985,5.31,72186.8,-9.91,-11.77,-11.89,0,*51
1511938919.26,27986,5.31,72184.3,-9.91,-11.59,-11.73,0,*5B
1511938920.52,27987,5.31,72190.3,-9.95,-11.81,-12.03,0,*5F
1511938921.77,27988,5.31,72206.3,-9.95,-11.77,-12.03,0,*59
1511938923.05,27989,5.31,72194.5,-9.95,-11.63,-11.77,0,*5D
1511938924.34,27990,5.31,72176.0,-9.95,-11.77,-11.93,0,*5A
1511938925.62,27991,5.31,72170.8,-9.95,-12.07,-12.35,0,*50
1511938926.91,27992,5.38,72184.0,-9.95,-11.77,-11.93,0,*58
1511938928.18,27993,5.31,72186.3,-9.95,-11.81,-12.15,0,*5D
1511938929.46,27994,5.38,72192.5,-9.95,-11.81,-11.89,0,*5C
1511938930.73,27995,5.31,72194.8,-9.95,-11.81,-11.77,0,*5C
1511938932.01,27996,5.38,72190.5,-9.95,-11.77,-11.77,0,*56
1511938933.28,27997,5.31,72186.0,-9.95,-11.81,-11.81,0,*57
1511938934.56,27998,5.31,72196.8,-9.95,-11.89,-11.81,0,*50
1511938935.84,27999,5.31,72204.5,-9.95,-11.77,-11.77,0,*59
1511938937.11,28000,5.31,72204.8,-9.97,-11.59,-11.63,0,*54
1511938938.39,28001,5.31,72220.0,-9.95,-11.59,-11.63,0,*57
1511938939.65,28002,5.31,72212.0,-9.95,-11.45,-11.51,0,*58
1511938940.91,28003,5.31,72202.5,-9.97,-11.51,-11.59,0,*56
1511938942.17,28004,5.31,72194.3,-9.97,-11.73,-11.89,0,*5C
1511938943.44,28005,5.31,72204.8,-9.95,-11.81,-11.81,0,*5A
1511938944.7,28006,5.31,72214.0,-9.97,-11.77,-11.81,0,*52
1511938945.94,28007,5.31,72204.0,-9.97,-12.03,-12.35,0,*5F
1511938947.15,28008,5.38,72212.3,-9.97,-12.21,-12.47,0,*55
1511938948.41,28009,5.31,72200.5,-9.97,-12.35,-12.61,0,*55
1511938949.67,28010,5.38,72202.5,-9.97,-12.35,-12.61,0,*5D
1511938950.91,28011,5.31,72196.3,-9.97,-12.47,-12.75,0,*5C
1511938952.15,28012,5.31,72198.0,-9.97,-12.47,-12.79,0,*53
1511938953.41,28013,5.38,72198.8,-9.99,-12.53,-12.93,0,*5D
1511938954.63,28014,5.38,72190.8,-9.97,-12.29,-12.47,0,*50
1511938955.89,28015,5.31,72198.0,-9.99,-12.25,-12.53,0,*56
1511938957.1,28016,5.31,72194.8,-9.97,-12.03,-12.29,0,*52
1511938958.39,28017,5.31,72198.0,-9.99,-12.07,-12.53,0,*54
1511938959.65,28018,5.31,72202.8,-9.99,-12.21,-12.61,0,*5E
1511938960.86,28019,5.31,72184.8,-9.97,-12.03,-12.21,0,*55
1511938962.1,28020,5.31,72186.8,-9.97,-12.03,-12.15,0,*58
1511938963.36,28021,5.31,72182.8,-9.97,-11.93,-11.93,0,*5E
1511938964.64,28022,5.31,72198.3,-9.97,-11.93,-11.93,0,*5D
1511938965.87,28023,5.31,72204.8,-9.97,-12.07,-12.21,0,*58
1511938967.11,28024,5.31,72198.5,-9.97,-12.15,-12.29,0,*54
1511938968.35,28025,5.31,72202.3,-9.97,-12.29,-12.57,0,*53
1511938969.61,28026,5.31,72216.3,-9.97,-12.35,-12.65,0,*5C
1511938970.84,28027,5.31,72196.0,-9.97,-12.47,-12.65,0,*58
1511938972.1,28028,5.31,72208.5,-9.99,-12.65,-12.97,0,*54
1511938973.38,28029,5.31,72216.3,-9.99,-12.61,-12.79,0,*51
1511938974.64,28030,5.31,72220.3,-9.99,-12.83,-12.93,0,*51
1511938975.9,28031,5.31,72212.0,-9.99,-12.53,-12.47,0,*54
1511938977.16,28032,5.31,72226.3,-9.99,-12.39,-12.35,0,*5E
1511938978.4,28033,5.31,72218.0,-9.99,-12.25,-12.21,0,*57
1511938979.64,28034,5.31,72214.8,-9.99,-12.25,-12.21,0,*50
1511938980.92,28035,5.31,72210.0,-9.99,-12.07,-11.97,0,*5F
1511938982.2,28036,5.31,72208.3,-9.99,-11.77,-11.81,0,*5F
1511938983.49,28037,5.31,72198.0,-9.99,-11.63,-11.67,0,*53
1511938984.78,28038,5.31,72196.8,-9.99,-11.55,-11.63,0,*5D
1511938986.03,28039,5.31,72194.5,-9.95,-11.23,-11.37,0,*50
1511938987.24,28040,5.31,72190.3,-9.97,-11.19,-11.23,0,*50
1511938988.44,28041,5.31,72188.8,-9.97,-11.19,-11.23,0,*51
1511938989.66,28042,5.31,72186.5,-9.97,-10.93,-10.97,0,*5F
1511938990.89,28043,5.31,72190.0,-9.97,-11.07,-11.19,0,*55
1511938992.14,28044,5.31,72182.0,-9.97,-10.97,-11.07,0,*55
1511938993.37,28045,5.31,72186.5,-9.99,-11.11,-11.11,0,*52
1511938994.58,28046,5.31,72190.3,-9.97,-10.97,-11.11,0,*50
1511938995.81,28047,5.31,72192.5,-9.95,-10.93,-10.85,0,*5B
1511938997.03,28048,5.31,72190.0,-9.97,-10.97,-10.97,0,*51
1511938998.29,28049,5.31,72188.8,-9.97,-10.75,-10.75,0,*50
1511938999.51,28050,5.31,72190.0,-9.97,-10.93,-10.97,0,*5C
1511939000.73,28051,5.31,72192.5,-9.97,-10.97,-10.97,0,*59
1511939001.97,28052,5.31,72186.8,-9.95,-10.93,-10.97,0,*5C
1511939003.25,28053,5.31,72192.5,-9.95,-11.07,-11.07,0,*59
1511939004.53,28054,5.31,72204.0,-9.95,-11.33,-11.33,0,*5E
1511939005.79,28055,5.31,72180.3,-9.91,-11.15,-11.29,0,*54
1511939007.07,28056,5.31,72196.3,-9.91,-11.33,-11.29,0,*53
1511939008.3,28057,5.31,72198.3,-9.91,-11.41,-11.19,0,*54
1511939009.6,28058,5.31,72198.8,-9.91,-11.29,-11.07,0,*5A
1511939010.83,28059,5.31,72198.0,-9.89,-11.19,-11.07,0,*51
1511939012.04,28060,5.31,72194.5,-9.89,-11.41,-11.41,0,*54
1511939013.24,28061,5.31,72184.5,-9.89,-11.19,-11.15,0,*59
1511939014.53,28062,5.31,72174.3,-9.91,-11.29,-11.29,0,*5F
1511939015.77,28063,5.31,72184.3,-9.89,-11.33,-11.41,0,*52
1511939017.0,28064,5.31,72184.5,-9.89,-11.33,-11.41,0,*55
1511939018.28,28065,5.31,72178.5,-9.91,-11.33,-11.33,0,*58
1511939019.51,28066,5.31,72178.5,-9.89,-11.15,-11.07,0,*51
1511939020.75,28067,5.31,72182.3,-9.89,-10.79,-10.89,0,*5C
1511939021.98,28068,5.31,72176.5,-9.91,-11.01,-10.93,0,*5F
1511939023.22,28069,5.31,72184.0,-9.89,-11.07,-11.01,0,*5B
1511939024.45,28070,5.31,72194.3,-9.89,-11.15,-11.07,0,*56
1511939025.66,28071,5.31,72196.5,-9.89,-10.93,-11.01,0,*5E
1511939026.92,28072,5.31,72190.5,-9.89,-10.79,-10.79,0,*57
1511939028.16,28073,5.31,72196.3,-9.89,-10.89,-10.79,0,*59
1511939029.44,28074,5.31,72200.3,-9.87,-10.75,-10.71,0,*5B
1511939030.72,28075,5.31,72210.8,-9.87,-10.75,-10.75,0,*5E
1511939031.98,28076,5.31,72210.0,-9.89,-10.79,-10.79,0,*53
1511939033.23,28077,5.31,72212.0,-9.87,-10.85,-10.75,0,*53
1511939034.49,28078,5.31,72208.8,-9.87,-10.85,-10.75,0,*5C
1511939035.72,28079,5.31,72196.5,-9.87,-10.89,-10.89,0,*52
1511939036.95,28080,5.31,72190.8,-9.87,-10.89,-10.89,0,*54
1511939038.16,28081,5.31,72182.8,-9.85,-10.97,-10.89,0,*58
1511939039.37,28082,5.31,72184.3,-9.85,-10.97,-11.01,0,*5A
1511939040.6,28083,5.31,72190.5,-9.87,-11.11,-11.01,0,*56
1511939041.84,28084,5.31,72190.3,-9.87,-11.01,-11.01,0,*50
1511939043.05,28085,5.31,72182.5,-9.85,-11.01,-11.01,0,*53
1511939044.26,28086,5.31,72180.0,-9.85,-10.97,-11.01,0,*5E
1511939045.5,28087,5.31,72180.3,-9.87,-10.97,-10.97,0,*53
1511939046.71,28088,5.31,72168.3,-9.85,-11.01,-11.01,0,*5E
1511939047.92,28089,5.31,72170.8,-9.85,-11.01,-11.11,0,*5E
1511939049.18,28090,5.31,72180.3,-9.87,-11.23,-11.37,0,*50
1511939050.43,28091,5.31,72186.0,-9.87,-11.15,-11.29,0,*5B
1511939051.64,28092,5.38,72190.5,-9.85,-11.11,-11.23,0,*54
1511939052.87,28093,5.31,72182.0,-9.87,-11.11,-11.23,0,*57
1511939054.08,28094,5.31,72186.5,-9.85,-11.01,-11.15,0,*56
1511939055.28,28095,5.31,72190.0,-9.85,-11.11,-11.15,0,*56
1511939056.49,28096,5.31,72188.3,-9.85,-11.01,-11.11,0,*50
1511939057.72,28097,5.31,72188.8,-9.87,-11.01,-11.11,0,*53
1511939058.93,28098,5.31,72194.3,-9.85,-10.89,-11.11,0,*5F
1511939060.13,28099,5.31,72192.3,-9.85,-10.89,-11.11,0,*5E
1511939061.34,28100,5.31,72188.8,-9.85,-11.01,-11.11,0,*5E
1511939062.55,28101,5.31,72184.5,-9.85,-11.01,-11.15,0,*5B
1511939063.76,28102,5.31,72184.5,-9.85,-11.23,-11.23,0,*5D
1511939064.99,28103,5.31,72186.8,-9.85,-11.23,-11.37,0,*59
1511939066.25,28104,5.31,72182.8,-9.85,-11.37,-11.29,0,*54
1511939067.45,28105,5.31,72178.0,-9.85,-11.23,-11.11,0,*5B
1511939068.68,28106,5.31,72170.8,-9.83,-11.11,-10.93,0,*54
1511939069.93,28107,5.31,72172.0,-9.83,-11.07,-10.85,0,*55
1511939071.16,28108,5.31,72176.5,-9.83,-10.97,-10.85,0,*52
1511939072.36,28109,5.31,72180.5,-9.81,-10.97,-10.85,0,*51
1511939073.59,28110,5.31,72180.8,-9.83,-10.97,-10.85,0,*5B
1511939074.8,28111,5.31,72164.5,-9.81,-10.97,-10.93,0,*5F
1511939076.03,28112,5.31,72160.3,-9.81,-11.07,-10.93,0,*54
1511939077.26,28113,5.31,72160.0,-9.83,-11.19,-10.97,0,*5C
1511939078.51,28114,5.31,72162.5,-9.83,-11.33,-11.23,0,*5D
1511939079.76,28115,5.31,72156.0,-9.81,-11.33,-11.33,0,*5F
1511939081.0,28116,5.31,72168.3,-9.83,-11.23,-11.33,0,*5F
1511939082.2,28117,5.31,72164.8,-9.81,-11.11,-11.19,0,*55
1511939083.46,28118,5.31,72158.3,-9.81,-11.33,-11.51,0,*56
1511939084.71,28119,5.31,72156.8,-9.81,-11.59,-12.07,0,*5B
1511939085.99,28120,5.31,72164.0,-9.83,-11.89,-12.35,0,*5F
1511939087.26,28121,5.31,72148.8,-9.81,-11.93,-12.35,0,*57
1511939088.51,28122,5.31,72136.0,-9.83,-12.07,-12.47,0,*5D
1511939089.75,28123,5.31,72142.5,-9.81,-12.21,-12.53,0,*5F
1511939090.98,28124,5.31,72158.5,-9.81,-12.43,-12.79,0,*54
1511939092.2,28125,5.31,72174.8,-9.83,-12.47,-13.07,0,*5B
1511939093.43,28126,5.31,72168.5,-9.81,-12.53,-13.15,0,*5C
1511939094.67,28127,5.31,72172.3,-9.83,-12.79,-13.47,0,*50
1511939095.87,28128,5.31,72176.5,-9.81,-12.89,-13.51,0,*55
1511939097.09,28129,5.31,72178.0,-9.81,-12.79,-13.47,0,*5C
1511939098.35,28130,5.31,72172.8,-9.81,-12.79,-13.33,0,*57
1511939099.6,28131,5.31,72192.3,-9.81,-12.75,-13.33,0,*5A
1511939100.86,28132,5.31,72192.0,-9.81,-12.75,-13.29,0,*52
1511939102.08,28133,5.31,72182.3,-9.81,-12.79,-13.15,0,*50
1511939103.31,28134,5.31,72190.0,-9.81,-12.65,-13.07,0,*59
1511939104.53,28135,5.31,72190.5,-9.81,-12.43,-13.01,0,*5A
1511939105.73,28136,5.31,72186.3,-9.81,-12.47,-13.07,0,*5B
1511939106.97,28137,5.31,72188.5,-9.83,-12.43,-13.01,0,*5A
1511939108.17,28138,5.31,72190.5,-9.81,-12.47,-13.07,0,*55
1511939109.37,28139,5.31,72194.0,-9.81,-12.43,-13.15,0,*53
1511939110.57,28140,5.31,72196.0,-9.81,-12.43,-12.93,0,*52
1511939111.79,28141,5.31,72202.0,-9.81,-12.47,-13.01,0,*5D
1511939112.99,28142,5.31,72204.0,-9.81,-12.47,-13.07,0,*58
1511939114.24,28143,5.31,72198.0,-9.83,-12.53,-13.07,0,*5E
1511939115.49,28144,5.31,72196.8,-9.83,-12.61,-13.15,0,*5B
1511939116.77,28145,5.31,72200.0,-9.83,-12.75,-13.29,0,*50
1511939117.99,28146,5.31,72198.5,-9.81,-12.75,-13.47,0,*59
1511939119.21,28147,5.31,72200.0,-9.83,-13.07,-13.73,0,*59
1511939120.43,28148,5.31,72194.5,-9.81,-13.15,-13.87,0,*5C
1511939121.65,28149,5.31,72204.0,-9.81,-13.19,-13.79,0,*50
1511939122.85,28150,5.31,72200.3,-9.81,-13.15,-13.73,0,*5E
1511939124.07,28151,5.31,72200.8,-9.81,-13.19,-13.79,0,*59
1511939125.3,28152,5.31,72198.5,-9.81,-13.19,-13.87,0,*5B
1511939126.55,28153,5.31,72196.8,-9.83,-13.33,-14.15,0,*5C
1511939127.76,28154,5.31,72202.3,-9.81,-13.43,-14.15,0,*5E
1511939128.97,28155,5.31,72196.0,-9.81,-13.51,-14.19,0,*50
1511939130.16,28156,5.31,72202.5,-9.81,-13.47,-14.19,0,*54
1511939131.39,28157,5.31,72202.5,-9.83,-13.65,-14.37,0,*5B
1511939132.65,28158,5.31,72194.5,-9.83,-14.05,-14.61,0,*56
1511939133.9,28159,5.31,72204.8,-9.83,-14.01,-14.37,0,*50
1511939135.13,28160,5.31,72184.0,-9.83,-13.93,-14.15,0,*56
1511939136.38,28161,5.31,72202.8,-9.83,-13.61,-13.65,0,*5A
1511939137.64,28162,5.31,72204.0,-9.83,-13.51,-13.29,0,*52
1511939138.88,28163,5.31,72214.8,-9.83,-13.51,-13.19,0,*50
1511939140.1,28164,5.31,72220.0,-9.83,-13.19,-13.07,0,*54
1511939141.35,28165,5.31,72228.0,-9.83,-12.89,-12.53,0,*5D
1511939142.63,28166,5.31,72204.3,-9.83,-12.35,-12.15,0,*5B
1511939143.89,28167,5.31,72200.3,-9.81,-11.89,-11.63,0,*5E
1511939145.17,28168,5.31,72212.3,-9.83,-11.81,-11.63,0,*5B
1511939146.44,28169,5.31,72220.5,-9.83,-11.67,-11.51,0,*53
1511939147.7,28170,5.31,72216.3,-9.81,-11.63,-11.37,0,*5D
1511939148.95,28171,5.31,72198.5,-9.83,-11.67,-11.45,0,*5F
1511939150.18,28172,5.31,72202.5,-9.79,-11.45,-11.33,0,*58
1511939151.41,28173,5.31,72202.0,-9.81,-11.37,-11.23,0,*5A
1511939152.63,28174,5.31,72196.8,-9.81,-11.37,-11.23,0,*5D
1511939153.84,28175,5.31,72192.3,-9.81,-11.45,-11.23,0,*59
1511939155.07,28176,5.31,72186.0,-9.81,-11.51,-11.23,0,*5F
1511939156.28,28177,5.31,72188.5,-9.79,-11.41,-11.19,0,*51
1511939157.48,28178,5.31,72206.8,-9.79,-11.41,-11.15,0,*52
1511939158.69,28179,5.31,72190.5,-9.79,-11.45,-11.15,0,*57
1511939159.93,28180,5.31,72210.0,-9.79,-11.45,-11.07,0,*52
1511939161.15,28181,5.31,72196.5,-9.79,-11.45,-11.01,0,*55
1511939162.36,28182,5.31,72192.0,-9.79,-11.45,-11.01,0,*56
1511939163.59,28183,5.31,72198.5,-9.79,-11.85,-11.41,0,*5F
1511939164.87,28184,5.31,72200.3,-9.77,-11.85,-11.33,0,*53
1511939166.16,28185,5.31,72196.5,-9.77,-11.55,-11.07,0,*58
1511939167.43,28186,5.31,72194.5,-9.77,-11.41,-11.07,0,*5E
1511939168.69,28187,5.31,72180.0,-9.77,-11.15,-10.75,0,*5A
1511939169.95,28188,5.31,72180.3,-9.77,-11.15,-10.79,0,*59
1511939171.19,28189,5.31,72174.3,-9.79,-11.01,-10.75,0,*5F
1511939172.43,28190,5.31,72182.0,-9.79,-10.93,-10.75,0,*5D
1511939173.69,28191,5.31,72180.0,-9.77,-10.93,-10.79,0,*5E
1511939174.96,28192,5.31,72176.5,-9.77,-10.93,-10.67,0,*52
1511939176.22,28193,5.31,72178.5,-9.77,-10.89,-10.67,0,*58
1511939177.49,28194,5.31,72178.3,-9.77,-10.89,-10.67,0,*5F
1511939178.78,28195,5.31,72180.0,-9.77,-10.79,-10.63,0,*55
1511939180.04,28196,5.31,72176.3,-9.77,-10.67,-10.57,0,*5E
1511939181.28,28197,5.31,72178.3,-9.75,-10.63,-10.53,0,*5D
1511939182.54,28198,5.31,72176.3,-9.77,-10.67,-10.57,0,*50
1511939183.78,28199,5.31,72182.3,-9.77,-10.49,-10.49,0,*52
1511939185.01,28200,5.31,72184.3,-9.73,-10.57,-10.45,0,*56
1511939186.24,28201,5.31,72186.8,-9.75,-10.53,-10.41,0,*51
1511939187.47,28202,5.31,72188.8,-9.73,-10.57,-10.45,0,*54
1511939188.72,28203,5.31,72190.8,-9.73,-10.53,-10.41,0,*55
1511939189.99,28204,5.31,72194.3,-9.75,-10.41,-10.41,0,*57
1511939191.19,28205,5.31,72198.8,-9.75,-10.45,-10.45,0,*56
1511939192.45,28206,5.31,72194.8,-9.73,-10.57,-10.41,0,*54
1511939193.71,28207,5.31,72196.3,-9.73,-10.45,-10.41,0,*56
1511939194.96,28208,5.31,72198.3,-9.73,-10.53,-10.41,0,*5E
1511939196.22,28209,5.31,72194.8,-9.73,-10.53,-10.41,0,*5F
1511939197.44,28210,5.31,72192.3,-9.73,-10.53,-10.31,0,*50
1511939198.7,28211,5.31,72188.0,-9.71,-10.41,-10.41,0,*57
1511939199.94,28212,5.31,72182.8,-9.71,-10.41,-10.35,0,*57
1511939201.2,28213,5.31,72184.0,-9.71,-10.41,-10.41,0,*55
1511939202.4,28214,5.31,72188.5,-9.71,-10.49,-10.35,0,*59
1511939203.6,28215,5.31,72190.3,-9.67,-10.49,-10.49,0,*54
1511939204.81,28216,5.31,72198.3,-9.71,-10.49,-10.35,0,*5B
1511939206.04,28217,5.31,72190.8,-9.67,-10.53,-10.41,0,*55
1511939207.26,28218,5.31,72192.5,-9.67,-10.53,-10.41,0,*5A
1511939208.47,28219,5.31,72196.0,-9.67,-10.53,-10.35,0,*58
1511939209.7,28220,5.31,72198.0,-9.67,-10.49,-10.41,0,*5A
1511939210.92,28221,5.31,72194.0,-9.67,-10.53,-10.41,0,*50
1511939212.12,28222,5.31,72194.5,-9.67,-10.53,-10.49,0,*5B
1511939213.32,28223,5.31,72188.3,-9.67,-10.57,-10.53,0,*55
1511939214.56,28224,5.31,72202.5,-9.67,-10.67,-10.53,0,*51
1511939215.82,28225,5.31,72204.3,-9.65,-10.67,-10.49,0,*59
1511939217.05,28226,5.31,72204.5,-9.67,-10.71,-10.57,0,*50
1511939218.34,28227,5.31,72204.5,-9.65,-10.67,-10.63,0,*53
1511939219.6,28228,5.31,72204.8,-9.65,-10.93,-10.75,0,*50
1511939220.86,28229,5.31,72200.3,-9.65,-11.01,-10.79,0,*57
1511939222.09,28230,5.31,72192.5,-9.63,-11.07,-10.89,0,*50
1511939223.35,28231,5.31,72190.0,-9.65,-11.29,-11.01,0,*5A
1511939224.63,28232,5.31,72188.5,-9.65,-11.29,-11.07,0,*5F
1511939225.89,28233,5.31,72186.3,-9.65,-11.29,-11.01,0,*58
1511939227.12,28234,5.31,72180.0,-9.65,-11.19,-10.93,0,*56
1511939228.4,28235,5.31,72180.0,-9.65,-11.07,-10.79,0,*5C
1511939229.66,28236,5.31,72170.8,-9.65,-11.01,-10.75,0,*55
1511939230.89,28237,5.31,72176.3,-9.63,-10.93,-10.67,0,*5B
1511939232.18,28238,5.31,72186.3,-9.65,-10.79,-10.67,0,*56
1511939233.46,28239,5.31,72186.5,-9.65,-10.79,-10.75,0,*54
1511939234.72,28240,5.31,72188.8,-9.65,-10.89,-10.75,0,*55
1511939235.98,28241,5.31,72188.8,-9.65,-10.93,-10.67,0,*5C
1511939237.23,28242,5.31,72190.3,-9.65,-10.93,-10.79,0,*50
1511939238.49,28243,5.31,72196.0,-9.65,-10.93,-10.63,0,*5A
1511939239.77,28244,5.31,72188.0,-9.65,-10.79,-10.75,0,*5E
1511939241.06,28245,5.31,72190.0,-9.65,-10.79,-10.75,0,*5F
1511939242.31,28246,5.31,72192.0,-9.65,-10.93,-10.79,0,*54
1511939243.59,28247,5.31,72202.8,-9.65,-10.79,-10.75,0,*5D
1511939244.82,28248,5.31,72202.8,-9.65,-10.53,-10.53,0,*5E
1511939246.08,28249,5.31,72204.0,-9.63,-10.63,-10.63,0,*59
1511939247.3,28250,5.31,72202.8,-9.65,-10.53,-10.53,0,*57
1511939248.5,28251,5.31,72206.5,-9.63,-10.53,-10.45,0,*57
1511939249.72,28252,5.31,72210.8,-9.65,-10.53,-10.49,0,*5E
1511939250.94,28253,5.31,72206.8,-9.65,-10.53,-10.45,0,*53
1511939252.14,28254,5.31,72208.0,-9.63,-10.53,-10.49,0,*5E
1511939253.37,28255,5.31,72210.3,-9.65,-10.49,-10.49,0,*52
1511939254.6,28256,5.31,72220.0,-9.65,-10.49,-10.49,0,*51
1511939255.86,28257,5.31,72216.0,-9.65,-10.63,-10.53,0,*53
1511939257.11,28258,5.31,72202.5,-9.63,-10.75,-10.63,0,*5E
1511939258.34,28259,5.31,72194.8,-9.63,-10.89,-10.75,0,*5B
1511939259.62,28260,5.31,72222.5,-9.65,-11.07,-11.07,0,*54
1511939260.87,28261,5.31,72220.3,-9.63,-11.73,-11.77,0,*57
1511939262.08,28262,5.31,72202.8,-9.63,-12.29,-12.43,0,*5C
1511939263.3,28263,5.31,72196.8,-9.63,-12.47,-12.57,0,*50
1511939264.56,28264,5.31,72200.5,-9.65,-12.47,-12.75,0,*51
1511939265.81,28265,5.31,72184.8,-9.65,-12.97,-13.01,0,*5F
1511939267.06,28266,5.31,72190.0,-9.63,-13.33,-13.33,0,*54
1511939268.28,28267,5.31,72184.8,-9.65,-13.55,-13.47,0,*50
1511939269.51,28268,5.31,72180.3,-9.61,-13.65,-13.51,0,*5F
1511939270.74,28269,5.31,72192.8,-9.63,-13.43,-13.29,0,*57
1511939271.98,28270,5.31,72202.3,-9.63,-13.29,-13.01,0,*59
1511939273.24,28271,5.31,72212.8,-9.63,-13.01,-12.75,0,*50
1511939274.48,28272,5.31,72210.5,-9.63,-12.97,-12.71,0,*59
1511939275.73,28273,5.31,72206.0,-9.63,-12.75,-12.61,0,*55
1511939276.98,28274,5.31,72200.0,-9.63,-12.61,-12.61,0,*57
1511939278.18,28275,5.31,72160.3,-9.63,-12.89,-12.89,0,*56
1511939279.38,28276,5.31,72170.0,-9.63,-13.11,-13.11,0,*55
1511939280.61,28277,5.31,72188.8,-9.61,-13.07,-13.23,0,*50
1511939281.84,28278,5.31,72184.8,-9.61,-13.23,-13.69,0,*57
1511939283.06,28279,5.31,72182.3,-9.61,-13.43,-13.93,0,*55
1511939284.3,28280,5.31,72170.5,-9.59,-13.51,-13.97,0,*5F
1511939285.56,28281,5.31,72198.3,-9.61,-13.79,-14.15,0,*52
1511939286.82,28282,5.31,72198.3,-9.61,-14.23,-14.55,0,*5D
1511939288.06,28283,5.31,72172.3,-9.63,-14.19,-14.55,0,*57
1511939289.26,28284,5.31,72168.8,-9.63,-14.19,-14.69,0,*5F
1511939290.49,28285,5.31,72186.3,-9.63,-14.43,-14.89,0,*5F
1511939291.75,28286,5.31,72182.0,-9.63,-14.43,-14.83,0,*56
1511939293.01,28287,5.31,72172.5,-9.61,-14.37,-15.01,0,*5D
1511939294.24,28288,5.31,72192.3,-9.63,-14.19,-14.83,0,*57
1511939295.5,28289,5.31,72172.5,-9.61,-14.37,-14.97,0,*5D
1511939296.74,28290,5.31,72188.5,-9.63,-14.15,-14.83,0,*52
1511939298.01,28291,5.31,72202.3,-9.61,-14.11,-14.79,0,*50
1511939299.26,28292,5.31,72188.5,-9.61,-14.29,-15.01,0,*56
1511939300.49,28293,5.31,72180.8,-9.63,-14.43,-15.07,0,*5F
1511939301.72,28294,5.31,72186.8,-9.63,-14.43,-15.07,0,*58
1511939302.95,28295,5.31,72180.5,-9.63,-14.61,-15.43,0,*59
1511939304.15,28296,5.31,72192.0,-9.63,-14.69,-15.49,0,*58
1511939305.36,28297,5.31,72188.8,-9.63,-14.69,-15.49,0,*59